OPS 4682 DEB, 38405

Orbit data source: Space-Track

OPS 4682 DEB, 38405 is space debris in LEO originally from a launch on Sat, 03 Apr 1965 UTC launched from the Air Force Western Test Range (AFWTR). Debris objects in space refer to the collection of defunct objects orbiting the Earth. Examples of debris include non-operational satellites, rocket bodies, and fragments generated from explosions, collisions, or faulty payload assembly.

Loading next visibility...
Identifier
38405, 1965-027DJ
Orbit
LEO
Country
Flag of USUS
Related business
Manufacturer
Unknown
Mission
Spacecraft
Bus & Motor
Unknown
Mass
Unknown
Launch date (UTC)
1965-04-03 (61 years ago)
Launch vehicle
Unknown
Launch site
Air Force Western Test Range (AFWTR)
Object type
Payload
Rocket body
Debris
Shape & HBR
Unknown shape, 0.1 m
Radar Cross Section
Medium (>0.1 m² and <1 m²)

Expand to show TLE details & history
Last TLE update: 4 days ago

TLE from 4 days ago
0 OPS 4682 DEB
1 38405U 65027DJ  26171.53071511  .00000133  00000-0  41715-3 0  9998
2 38405  90.2749  22.3141 0017287 134.5105 225.7433 12.99754105665499
Epoch: 2026-06-20T12:44Z
TLE epoch observation values (Epoch: 2026-06-20T12:44:13.785Z)
Latitude
-0.00002°
Longitude
-77.48735°
Altitude
1,275.165 km
Speed
7.214 km/s
True Right ascension
01h 29m 15s
True Declination
0° 00' 00"
Sunlit
Object was in daylight at epoch
Visualization orbit readout
Latitude
Unknown
Longitude
Unknown
Altitude
Unknown
Speed
Unknown
Apparent Right ascension
Unknown
Apparent Declination
Unknown
Sunlit
N/A
Visualization observer readout
Local Sidereal Time
01:46:58
Azimuth
Unknown
Elevation
Unknown
Doppler factor
Unknown
Orbital elements
Apogee altitude
1,273.382 km
Perigee altitude
1,246.973 km
Semi-major axis
7,638.315 km
Eccentricity
0.00173
Inclination
90.2749°
RAAN
22.3141°
Arg. of periapsis
134.5105°
True anomaly
225.60163°
Mean anomaly
225.7433°
Eccentric anomaly
225.67245°
Mean motion
3.25122 °/min
Orbital period
110.73 mins
BSTAR
0.00041715
Loading maneuver chart data...
Computing Atmospheric mass density...
Loading historical data...
Loading historical data...
Loading historical data...
Loading historical data...
Loading historical data...
Loading historical data...
Loading historical data...

Documentation

Showing up to 5 results
|